This is the latest recevied weather packets stored in our database for station/object W4MLN-1. If no packets are shown the sender has not sent any weather packets the latest 10 day(s).
| Time | Temp. | Humidity | Pressure | Rain* | Wind** | Luminosity | Snow |
|---|---|---|---|---|---|---|---|
| 1777985603 | 8.33° C | 92% | 1016.1 hPa | 0 mm | - | 111 W/m² | - |
| 1777985288 | 7.78° C | 95% | 1016.1 hPa | 0 mm | - | 73 W/m² | - |
| 1777984987 | 7.78° C | 96% | 1016.1 hPa | 0 mm | - | 77 W/m² | - |
| 1777984688 | 7.22° C | 97% | 1016 hPa | 0 mm | - | 97 W/m² | - |
| 1777984389 | 6.67° C | 99% | 1016 hPa | 0 mm | - | 89 W/m² | - |
| 1777984089 | 6.11° C | 100% | 1016.1 hPa | 0 mm | - | 53 W/m² | - |
| 1777983788 | 5.56° C | 99% | 1016.1 hPa | 0 mm | - | 51 W/m² | - |
| 1777983488 | 5.56° C | 99% | 1016.1 hPa | 0 mm | - | 50 W/m² | - |
| 1777983189 | 5° C | 99% | 1016.1 hPa | 0 mm | - | 52 W/m² | - |
| 1777982888 | 5° C | 99% | 1016.1 hPa | 0 mm | - | 48 W/m² | - |
| 1777982588 | 5° C | 99% | 1016 hPa | 0 mm | - | 46 W/m² | - |
| 1777982289 | 4.44° C | 99% | 1016 hPa | 0 mm | - | 44 W/m² | - |
| 1777981973 | 4.44° C | 99% | 1015.8 hPa | 0 mm | - | 42 W/m² | - |
| 1777981673 | 3.89° C | 99% | 1015.8 hPa | 0 mm | - | 42 W/m² | - |
| 1777981374 | 3.89° C | 99% | 1015.7 hPa | 0 mm | - | 41 W/m² | - |
| 1777981074 | 3.33° C | 99% | 1015.7 hPa | 0 mm | - | 39 W/m² | - |
| 1777980774 | 3.33° C | 99% | 1015.7 hPa | 0 mm | - | 37 W/m² | - |
| 1777980474 | 3.33° C | 99% | 1015.6 hPa | 0 mm | - | 35 W/m² | - |
| 1777980173 | 3.33° C | 99% | 1015.4 hPa | 0 mm | - | 34 W/m² | - |
| 1777979872 | 3.33° C | 99% | 1015.4 hPa | 0 mm | - | 32 W/m² | - |
| 1777979559 | 3.33° C | 99% | 1015.7 hPa | 0 mm | - | 29 W/m² | - |
| 1777979260 | 3.33° C | 99% | 1015.7 hPa | 0 mm | - | 27 W/m² | - |
| 1777978960 | 2.78° C | 99% | 1015.6 hPa | 0 mm | - | 23 W/m² | - |
| 1777978644 | 2.78° C | 99% | 1015.6 hPa | 0 mm | - | 19 W/m² | - |
| 1777978345 | 2.78° C | 100% | 1015.6 hPa | 0 mm | - | 14 W/m² | - |
* Rain latest hour (hover to see other rain measurements)
** Current wind speed in m/s (hover to see current wind gust speed)